owner,sensor,date,latitude,longitude,vertical_datum,sea_water_practical_salinity,qcFlag 
TABS,ioos:station:wmo:42051:1,2015-04-01T00:00:00Z,29.6350,-93.6417,2.0,24.0177,11111222 
TABS,ioos:station:wmo:42051:1,2015-04-01T00:30:00Z,29.6350,-93.6417,2.0,24.1493,11111222 
TABS,ioos:station:wmo:42051:1,2015-04-01T01:00:00Z,29.6350,-93.6417,2.0,24.2632,11111222 
TABS,ioos:station:wmo:42051:1,2015-04-01T01:30:00Z,29.6350,-93.6417,2.0,24.4152,11111222 
TABS,ioos:station:wmo:42051:1,2015-04-01T02:00:00Z,29.6350,-93.6417,2.0,24.5103,11111222 
TABS,ioos:station:wmo:42051:1,2015-04-01T02:30:00Z,29.6350,-93.6417,2.0,24.5921,11111222 
TABS,ioos:station:wmo:42051:1,2015-04-01T03:00:00Z,29.6350,-93.6417,2.0,24.7899,11111222 
TABS,ioos:station:wmo:42051:1,2015-04-01T03:30:00Z,29.6350,-93.6417,2.0,24.6648,11111222 
TABS,ioos:station:wmo:42051:1,2015-04-01T04:00:00Z,29.6350,-93.6417,2.0,24.6478,11111222 
TABS,ioos:station:wmo:42051:1,2015-04-01T04:30:00Z,29.6350,-93.6417,2.0,24.5421,11111222 
TABS,ioos:station:wmo:42051:1,2015-04-01T05:00:00Z,29.6350,-93.6417,2.0,24.2786,11111222 
TABS,ioos:station:wmo:42051:1,2015-04-01T05:30:00Z,29.6350,-93.6417,2.0,23.8342,11111222 
TABS,ioos:station:wmo:42051:1,2015-04-01T06:00:00Z,29.6350,-93.6417,2.0,23.5881,11111222 
TABS,ioos:station:wmo:42051:1,2015-04-01T06:30:00Z,29.6350,-93.6417,2.0,23.3775,11111222 
TABS,ioos:station:wmo:42051:1,2015-04-01T07:00:00Z,29.6350,-93.6417,2.0,23.0016,11111222 
TABS,ioos:station:wmo:42051:1,2015-04-01T07:30:00Z,29.6350,-93.6417,2.0,23.8414,11111222 
TABS,ioos:station:wmo:42051:1,2015-04-01T08:00:00Z,29.6350,-93.6417,2.0,23.3432,11111222 
TABS,ioos:station:wmo:42051:1,2015-04-01T08:30:00Z,29.6350,-93.6417,2.0,23.8926,11111222 
TABS,ioos:station:wmo:42051:1,2015-04-01T09:00:00Z,29.6350,-93.6417,2.0,23.2114,11111222 
TABS,ioos:station:wmo:42051:1,2015-04-01T09:30:00Z,29.6350,-93.6417,2.0,24.2716,11111222 
TABS,ioos:station:wmo:42051:1,2015-04-01T10:00:00Z,29.6350,-93.6417,2.0,23.9898,11111222 
TABS,ioos:station:wmo:42051:1,2015-04-01T10:30:00Z,29.6350,-93.6417,2.0,22.9897,11111222 
TABS,ioos:station:wmo:42051:1,2015-04-01T11:00:00Z,29.6350,-93.6417,2.0,22.9404,11111222 
TABS,ioos:station:wmo:42051:1,2015-04-01T11:30:00Z,29.6350,-93.6417,2.0,22.7339,11111222 
TABS,ioos:station:wmo:42051:1,2015-04-01T12:00:00Z,29.6350,-93.6417,2.0,22.8959,11111222 
TABS,ioos:station:wmo:42051:1,2015-04-01T12:30:00Z,29.6350,-93.6417,2.0,22.9078,11111222 
TABS,ioos:station:wmo:42051:1,2015-04-01T13:00:00Z,29.6350,-93.6417,2.0,23.158,11111222 
TABS,ioos:station:wmo:42051:1,2015-04-01T13:30:00Z,29.6350,-93.6417,2.0,23.8547,11111222 
TABS,ioos:station:wmo:42051:1,2015-04-01T14:00:00Z,29.6350,-93.6417,2.0,23.8319,11111222 
TABS,ioos:station:wmo:42051:1,2015-04-01T14:30:00Z,29.6350,-93.6417,2.0,24.779,11111222 
TABS,ioos:station:wmo:42051:1,2015-04-01T15:00:00Z,29.6350,-93.6417,2.0,24.879,11111222 
TABS,ioos:station:wmo:42051:1,2015-04-01T15:30:00Z,29.6350,-93.6417,2.0,25.239,11111222 
TABS,ioos:station:wmo:42051:1,2015-04-01T16:00:00Z,29.6350,-93.6417,2.0,25.5887,11111222 
TABS,ioos:station:wmo:42051:1,2015-04-01T16:30:00Z,29.6350,-93.6417,2.0,25.559,11111222 
TABS,ioos:station:wmo:42051:1,2015-04-01T17:00:00Z,29.6350,-93.6417,2.0,25.8527,11111222 
TABS,ioos:station:wmo:42051:1,2015-04-01T17:30:00Z,29.6350,-93.6417,2.0,26.0043,11111222 
TABS,ioos:station:wmo:42051:1,2015-04-01T18:00:00Z,29.6350,-93.6417,2.0,26.2251,11111222 
TABS,ioos:station:wmo:42051:1,2015-04-01T18:30:00Z,29.6350,-93.6417,2.0,26.2553,11111222 
TABS,ioos:station:wmo:42051:1,2015-04-01T19:00:00Z,29.6350,-93.6417,2.0,26.2904,11111222 
TABS,ioos:station:wmo:42051:1,2015-04-01T19:30:00Z,29.6350,-93.6417,2.0,26.4507,11111222 
TABS,ioos:station:wmo:42051:1,2015-04-01T20:00:00Z,29.6350,-93.6417,2.0,26.5302,11111222 
TABS,ioos:station:wmo:42051:1,2015-04-01T20:30:00Z,29.6350,-93.6417,2.0,26.3519,11111222 
TABS,ioos:station:wmo:42051:1,2015-04-01T21:00:00Z,29.6350,-93.6417,2.0,25.9506,11111222 
TABS,ioos:station:wmo:42051:1,2015-04-01T21:30:00Z,29.6350,-93.6417,2.0,25.7341,11111222 
TABS,ioos:station:wmo:42051:1,2015-04-01T22:00:00Z,29.6350,-93.6417,2.0,25.3047,11111222 
TABS,ioos:station:wmo:42051:1,2015-04-01T22:30:00Z,29.6350,-93.6417,2.0,25.6698,11111222 
TABS,ioos:station:wmo:42051:1,2015-04-01T23:00:00Z,29.6350,-93.6417,2.0,24.7739,11111222 
TABS,ioos:station:wmo:42051:1,2015-04-01T23:30:00Z,29.6350,-93.6417,2.0,24.4851,11111222 
TABS,ioos:station:wmo:42051:1,2015-04-02T00:00:00Z,29.6350,-93.6417,2.0,24.4666,11111222 
TABS,ioos:station:wmo:42051:1,2015-04-02T00:30:00Z,29.6350,-93.6417,2.0,24.8269,11111222 
TABS,ioos:station:wmo:42051:1,2015-04-02T01:00:00Z,29.6350,-93.6417,2.0,24.1237,11111222 
TABS,ioos:station:wmo:42051:1,2015-04-02T01:30:00Z,29.6350,-93.6417,2.0,24.0278,11111222 
TABS,ioos:station:wmo:42051:1,2015-04-02T02:00:00Z,29.6350,-93.6417,2.0,23.92,11111222 
TABS,ioos:station:wmo:42051:1,2015-04-02T02:30:00Z,29.6350,-93.6417,2.0,23.8472,11111222 
TABS,ioos:station:wmo:42051:1,2015-04-02T03:00:00Z,29.6350,-93.6417,2.0,23.6709,11111222 
TABS,ioos:station:wmo:42051:1,2015-04-02T03:30:00Z,29.6350,-93.6417,2.0,23.6851,11111222 
TABS,ioos:station:wmo:42051:1,2015-04-02T04:00:00Z,29.6350,-93.6417,2.0,23.6312,11111222 
TABS,ioos:station:wmo:42051:1,2015-04-02T04:30:00Z,29.6350,-93.6417,2.0,23.5979,11111222 
TABS,ioos:station:wmo:42051:1,2015-04-02T05:00:00Z,29.6350,-93.6417,2.0,23.5591,11111222 
TABS,ioos:station:wmo:42051:1,2015-04-02T05:30:00Z,29.6350,-93.6417,2.0,23.5853,11111222 
TABS,ioos:station:wmo:42051:1,2015-04-02T06:00:00Z,29.6350,-93.6417,2.0,23.9928,11111222 
TABS,ioos:station:wmo:42051:1,2015-04-02T06:30:00Z,29.6350,-93.6417,2.0,23.6231,11111222 
TABS,ioos:station:wmo:42051:1,2015-04-02T07:00:00Z,29.6350,-93.6417,2.0,25.1641,11111222 
TABS,ioos:station:wmo:42051:1,2015-04-02T07:30:00Z,29.6350,-93.6417,2.0,24.7712,11111222 
TABS,ioos:station:wmo:42051:1,2015-04-02T08:00:00Z,29.6350,-93.6417,2.0,24.69,11111222 
TABS,ioos:station:wmo:42051:1,2015-04-02T08:30:00Z,29.6350,-93.6417,2.0,24.9614,11111222 
TABS,ioos:station:wmo:42051:1,2015-04-02T09:00:00Z,29.6350,-93.6417,2.0,24.4504,11111222 
TABS,ioos:station:wmo:42051:1,2015-04-02T09:30:00Z,29.6350,-93.6417,2.0,23.9798,11111222 
TABS,ioos:station:wmo:42051:1,2015-04-02T10:00:00Z,29.6350,-93.6417,2.0,24.0634,11111222 
TABS,ioos:station:wmo:42051:1,2015-04-02T10:30:00Z,29.6350,-93.6417,2.0,23.8826,11111222 
TABS,ioos:station:wmo:42051:1,2015-04-02T11:00:00Z,29.6350,-93.6417,2.0,23.8994,11111222 
TABS,ioos:station:wmo:42051:1,2015-04-02T11:30:00Z,29.6350,-93.6417,2.0,23.8137,11111222 
TABS,ioos:station:wmo:42051:1,2015-04-02T12:00:00Z,29.6350,-93.6417,2.0,23.818,11111222 
TABS,ioos:station:wmo:42051:1,2015-04-02T12:30:00Z,29.6350,-93.6417,2.0,24.8252,11111222 
TABS,ioos:station:wmo:42051:1,2015-04-02T13:00:00Z,29.6350,-93.6417,2.0,24.62,11111222 
TABS,ioos:station:wmo:42051:1,2015-04-02T13:30:00Z,29.6350,-93.6417,2.0,24.8047,11111222 
TABS,ioos:station:wmo:42051:1,2015-04-02T14:00:00Z,29.6350,-93.6417,2.0,24.9969,11111222 
TABS,ioos:station:wmo:42051:1,2015-04-02T14:30:00Z,29.6350,-93.6417,2.0,24.1932,11111222 
TABS,ioos:station:wmo:42051:1,2015-04-02T15:00:00Z,29.6350,-93.6417,2.0,24.06,11111222 
TABS,ioos:station:wmo:42051:1,2015-04-02T15:30:00Z,29.6350,-93.6417,2.0,24.067,11111222 
TABS,ioos:station:wmo:42051:1,2015-04-02T16:00:00Z,29.6350,-93.6417,2.0,24.1399,11111222 
TABS,ioos:station:wmo:42051:1,2015-04-02T16:30:00Z,29.6350,-93.6417,2.0,24.1912,11111222 
TABS,ioos:station:wmo:42051:1,2015-04-02T17:00:00Z,29.6350,-93.6417,2.0,24.5263,11111222 
TABS,ioos:station:wmo:42051:1,2015-04-02T17:30:00Z,29.6350,-93.6417,2.0,24.6467,11111222 
TABS,ioos:station:wmo:42051:1,2015-04-02T18:00:00Z,29.6350,-93.6417,2.0,24.9432,11111222 
TABS,ioos:station:wmo:42051:1,2015-04-02T18:30:00Z,29.6350,-93.6417,2.0,25.0528,11111222 
TABS,ioos:station:wmo:42051:1,2015-04-02T19:00:00Z,29.6350,-93.6417,2.0,25.1321,11111222 
TABS,ioos:station:wmo:42051:1,2015-04-02T19:30:00Z,29.6350,-93.6417,2.0,25.1938,11111222 
TABS,ioos:station:wmo:42051:1,2015-04-02T20:00:00Z,29.6350,-93.6417,2.0,25.2122,11111222 
TABS,ioos:station:wmo:42051:1,2015-04-02T20:30:00Z,29.6350,-93.6417,2.0,25.2571,11111222 
TABS,ioos:station:wmo:42051:1,2015-04-02T21:00:00Z,29.6350,-93.6417,2.0,25.3587,11111222 
TABS,ioos:station:wmo:42051:1,2015-04-02T21:30:00Z,29.6350,-93.6417,2.0,25.416,11111222 
TABS,ioos:station:wmo:42051:1,2015-04-02T22:00:00Z,29.6350,-93.6417,2.0,25.3908,11111222 
TABS,ioos:station:wmo:42051:1,2015-04-02T22:30:00Z,29.6350,-93.6417,2.0,25.3686,11111222 
TABS,ioos:station:wmo:42051:1,2015-04-02T23:00:00Z,29.6350,-93.6417,2.0,25.3574,11111222 
TABS,ioos:station:wmo:42051:1,2015-04-02T23:30:00Z,29.6350,-93.6417,2.0,25.3343,11111222 
TABS,ioos:station:wmo:42051:1,2015-04-03T00:00:00Z,29.6350,-93.6417,2.0,25.3276,11111222 
TABS,ioos:station:wmo:42051:1,2015-04-03T00:30:00Z,29.6350,-93.6417,2.0,25.3255,11111222 
TABS,ioos:station:wmo:42051:1,2015-04-03T01:00:00Z,29.6350,-93.6417,2.0,25.29,11111222 
TABS,ioos:station:wmo:42051:1,2015-04-03T01:30:00Z,29.6350,-93.6417,2.0,25.2344,11111222 
TABS,ioos:station:wmo:42051:1,2015-04-03T02:00:00Z,29.6350,-93.6417,2.0,25.138,11111222 
TABS,ioos:station:wmo:42051:1,2015-04-03T02:30:00Z,29.6350,-93.6417,2.0,25.0245,11111222 
TABS,ioos:station:wmo:42051:1,2015-04-03T03:00:00Z,29.6350,-93.6417,2.0,24.8081,11111222 
TABS,ioos:station:wmo:42051:1,2015-04-03T03:30:00Z,29.6350,-93.6417,2.0,24.7782,11111222 
TABS,ioos:station:wmo:42051:1,2015-04-03T04:00:00Z,29.6350,-93.6417,2.0,24.7794,11111222 
TABS,ioos:station:wmo:42051:1,2015-04-03T04:30:00Z,29.6350,-93.6417,2.0,24.7596,11111222 
TABS,ioos:station:wmo:42051:1,2015-04-03T05:00:00Z,29.6350,-93.6417,2.0,24.7361,11111222 
TABS,ioos:station:wmo:42051:1,2015-04-03T05:30:00Z,29.6350,-93.6417,2.0,24.7418,11111222 
TABS,ioos:station:wmo:42051:1,2015-04-03T06:00:00Z,29.6350,-93.6417,2.0,24.8144,11111222 
TABS,ioos:station:wmo:42051:1,2015-04-03T06:30:00Z,29.6350,-93.6417,2.0,24.9264,11111222 
TABS,ioos:station:wmo:42051:1,2015-04-03T07:00:00Z,29.6350,-93.6417,2.0,25.031,11111222 
TABS,ioos:station:wmo:42051:1,2015-04-03T07:30:00Z,29.6350,-93.6417,2.0,25.0842,11111222 
TABS,ioos:station:wmo:42051:1,2015-04-03T08:00:00Z,29.6350,-93.6417,2.0,25.0983,11111222 
TABS,ioos:station:wmo:42051:1,2015-04-03T08:30:00Z,29.6350,-93.6417,2.0,25.1171,11111222 
TABS,ioos:station:wmo:42051:1,2015-04-03T09:00:00Z,29.6350,-93.6417,2.0,25.1256,11111222 
TABS,ioos:station:wmo:42051:1,2015-04-03T09:30:00Z,29.6350,-93.6417,2.0,25.0731,11111222 
TABS,ioos:station:wmo:42051:1,2015-04-03T10:00:00Z,29.6350,-93.6417,2.0,24.9131,11111222 
TABS,ioos:station:wmo:42051:1,2015-04-03T10:30:00Z,29.6350,-93.6417,2.0,24.7285,11111222 
TABS,ioos:station:wmo:42051:1,2015-04-03T11:00:00Z,29.6350,-93.6417,2.0,24.6311,11111222 
TABS,ioos:station:wmo:42051:1,2015-04-03T11:30:00Z,29.6350,-93.6417,2.0,24.5834,11111222 
TABS,ioos:station:wmo:42051:1,2015-04-03T12:00:00Z,29.6350,-93.6417,2.0,24.6014,11111222 
TABS,ioos:station:wmo:42051:1,2015-04-03T12:30:00Z,29.6350,-93.6417,2.0,24.6023,11111222 
TABS,ioos:station:wmo:42051:1,2015-04-03T13:00:00Z,29.6350,-93.6417,2.0,24.5783,11111222 
TABS,ioos:station:wmo:42051:1,2015-04-03T13:30:00Z,29.6350,-93.6417,2.0,24.4882,11111222 
TABS,ioos:station:wmo:42051:1,2015-04-03T14:00:00Z,29.6350,-93.6417,2.0,24.4825,11111222 
TABS,ioos:station:wmo:42051:1,2015-04-03T14:30:00Z,29.6350,-93.6417,2.0,24.4773,11111222 
TABS,ioos:station:wmo:42051:1,2015-04-03T15:00:00Z,29.6350,-93.6417,2.0,24.4715,11111222 
TABS,ioos:station:wmo:42051:1,2015-04-03T15:30:00Z,29.6350,-93.6417,2.0,24.4668,11111222 
TABS,ioos:station:wmo:42051:1,2015-04-03T16:00:00Z,29.6350,-93.6417,2.0,24.4747,11111222 
TABS,ioos:station:wmo:42051:1,2015-04-03T16:30:00Z,29.6350,-93.6417,2.0,24.4951,11111222 
TABS,ioos:station:wmo:42051:1,2015-04-03T17:00:00Z,29.6350,-93.6417,2.0,24.4878,11111222 
TABS,ioos:station:wmo:42051:1,2015-04-03T17:30:00Z,29.6350,-93.6417,2.0,24.4946,11111222 
TABS,ioos:station:wmo:42051:1,2015-04-03T18:00:00Z,29.6350,-93.6417,2.0,24.5032,11111222 
TABS,ioos:station:wmo:42051:1,2015-04-03T18:30:00Z,29.6350,-93.6417,2.0,24.5005,11111222 
TABS,ioos:station:wmo:42051:1,2015-04-03T19:00:00Z,29.6350,-93.6417,2.0,24.5013,11111222 
TABS,ioos:station:wmo:42051:1,2015-04-03T19:30:00Z,29.6350,-93.6417,2.0,24.4984,11111222 
TABS,ioos:station:wmo:42051:1,2015-04-03T20:00:00Z,29.6350,-93.6417,2.0,24.5171,11111222 
TABS,ioos:station:wmo:42051:1,2015-04-03T20:30:00Z,29.6350,-93.6417,2.0,24.5077,11111222 
TABS,ioos:station:wmo:42051:1,2015-04-03T21:00:00Z,29.6350,-93.6417,2.0,24.5046,11111222 
TABS,ioos:station:wmo:42051:1,2015-04-03T21:30:00Z,29.6350,-93.6417,2.0,24.5646,11111222 
TABS,ioos:station:wmo:42051:1,2015-04-03T22:00:00Z,29.6350,-93.6417,2.0,24.4901,11111222 
TABS,ioos:station:wmo:42051:1,2015-04-03T22:30:00Z,29.6350,-93.6417,2.0,24.5064,11111222 
TABS,ioos:station:wmo:42051:1,2015-04-03T23:00:00Z,29.6350,-93.6417,2.0,24.5255,11111222 
TABS,ioos:station:wmo:42051:1,2015-04-04T01:30:00Z,29.6350,-93.6417,2.0,24.4511,11111222 
TABS,ioos:station:wmo:42051:1,2015-04-04T02:00:00Z,29.6350,-93.6417,2.0,24.3136,11111222 
TABS,ioos:station:wmo:42051:1,2015-04-04T02:30:00Z,29.6350,-93.6417,2.0,24.2467,11111222 
TABS,ioos:station:wmo:42051:1,2015-04-04T03:00:00Z,29.6350,-93.6417,2.0,24.2394,11111222 
TABS,ioos:station:wmo:42051:1,2015-04-04T03:30:00Z,29.6350,-93.6417,2.0,24.2255,11111222 
TABS,ioos:station:wmo:42051:1,2015-04-04T04:00:00Z,29.6350,-93.6417,2.0,23.785,11111222 
TABS,ioos:station:wmo:42051:1,2015-04-04T04:30:00Z,29.6350,-93.6417,2.0,23.4983,11111222 
TABS,ioos:station:wmo:42051:1,2015-04-04T05:00:00Z,29.6350,-93.6417,2.0,23.5247,11111222 
TABS,ioos:station:wmo:42051:1,2015-04-04T05:30:00Z,29.6350,-93.6417,2.0,23.357,11111222 
TABS,ioos:station:wmo:42051:1,2015-04-04T06:00:00Z,29.6350,-93.6417,2.0,23.3818,11111222 
TABS,ioos:station:wmo:42051:1,2015-04-04T06:30:00Z,29.6350,-93.6417,2.0,23.4338,11111222 
TABS,ioos:station:wmo:42051:1,2015-04-04T07:00:00Z,29.6350,-93.6417,2.0,23.3858,11111222 
TABS,ioos:station:wmo:42051:1,2015-04-04T07:30:00Z,29.6350,-93.6417,2.0,23.3175,11111222 
TABS,ioos:station:wmo:42051:1,2015-04-04T08:00:00Z,29.6350,-93.6417,2.0,22.7224,11111222 
TABS,ioos:station:wmo:42051:1,2015-04-04T08:30:00Z,29.6350,-93.6417,2.0,21.7651,11111222 
TABS,ioos:station:wmo:42051:1,2015-04-04T09:00:00Z,29.6350,-93.6417,2.0,20.3934,11111222 
TABS,ioos:station:wmo:42051:1,2015-04-04T09:30:00Z,29.6350,-93.6417,2.0,20.3315,11111222 
TABS,ioos:station:wmo:42051:1,2015-04-04T10:00:00Z,29.6350,-93.6417,2.0,20.9249,11111222 
TABS,ioos:station:wmo:42051:1,2015-04-04T10:30:00Z,29.6350,-93.6417,2.0,20.9866,11111222 
TABS,ioos:station:wmo:42051:1,2015-04-04T11:00:00Z,29.6350,-93.6417,2.0,20.065,11111222 
TABS,ioos:station:wmo:42051:1,2015-04-04T11:30:00Z,29.6350,-93.6417,2.0,19.9603,11111222 
TABS,ioos:station:wmo:42051:1,2015-04-04T12:00:00Z,29.6350,-93.6417,2.0,20.004,11111222 
TABS,ioos:station:wmo:42051:1,2015-04-04T12:30:00Z,29.6350,-93.6417,2.0,20.0053,11111222 
TABS,ioos:station:wmo:42051:1,2015-04-04T13:00:00Z,29.6350,-93.6417,2.0,19.9831,11111222 
TABS,ioos:station:wmo:42051:1,2015-04-04T13:30:00Z,29.6350,-93.6417,2.0,19.9243,11111222 
TABS,ioos:station:wmo:42051:1,2015-04-04T14:00:00Z,29.6350,-93.6417,2.0,19.7852,11111222 
TABS,ioos:station:wmo:42051:1,2015-04-04T14:30:00Z,29.6350,-93.6417,2.0,19.8837,11111222 
TABS,ioos:station:wmo:42051:1,2015-04-04T15:00:00Z,29.6350,-93.6417,2.0,20.2052,11111222 
TABS,ioos:station:wmo:42051:1,2015-04-04T15:30:00Z,29.6350,-93.6417,2.0,20.9463,11111222 
TABS,ioos:station:wmo:42051:1,2015-04-04T16:00:00Z,29.6350,-93.6417,2.0,22.1936,11111222 
TABS,ioos:station:wmo:42051:1,2015-04-04T16:30:00Z,29.6350,-93.6417,2.0,22.7004,11111222 
TABS,ioos:station:wmo:42051:1,2015-04-04T17:00:00Z,29.6350,-93.6417,2.0,23.0517,11111222 
TABS,ioos:station:wmo:42051:1,2015-04-04T17:30:00Z,29.6350,-93.6417,2.0,23.401,11111222 
TABS,ioos:station:wmo:42051:1,2015-04-04T18:00:00Z,29.6350,-93.6417,2.0,22.291,11111222 
TABS,ioos:station:wmo:42051:1,2015-04-04T18:30:00Z,29.6350,-93.6417,2.0,22.8749,11111222 
TABS,ioos:station:wmo:42051:1,2015-04-04T19:00:00Z,29.6350,-93.6417,2.0,22.7455,11111222 
TABS,ioos:station:wmo:42051:1,2015-04-04T19:30:00Z,29.6350,-93.6417,2.0,22.5369,11111222 
TABS,ioos:station:wmo:42051:1,2015-04-04T20:00:00Z,29.6350,-93.6417,2.0,22.9812,11111222 
TABS,ioos:station:wmo:42051:1,2015-04-04T20:30:00Z,29.6350,-93.6417,2.0,22.7271,11111222 
TABS,ioos:station:wmo:42051:1,2015-04-04T21:00:00Z,29.6350,-93.6417,2.0,22.9846,11111222 
TABS,ioos:station:wmo:42051:1,2015-04-04T21:30:00Z,29.6350,-93.6417,2.0,21.5848,11111222 
TABS,ioos:station:wmo:42051:1,2015-04-04T22:00:00Z,29.6350,-93.6417,2.0,21.6825,11111222 
TABS,ioos:station:wmo:42051:1,2015-04-04T22:30:00Z,29.6350,-93.6417,2.0,22.3754,11111222 
TABS,ioos:station:wmo:42051:1,2015-04-04T23:00:00Z,29.6350,-93.6417,2.0,22.5406,11111222 
TABS,ioos:station:wmo:42051:1,2015-04-04T23:30:00Z,29.6350,-93.6417,2.0,22.4471,11111222 
TABS,ioos:station:wmo:42051:1,2015-04-05T00:00:00Z,29.6350,-93.6417,2.0,22.6816,11111222 
TABS,ioos:station:wmo:42051:1,2015-04-05T00:30:00Z,29.6350,-93.6417,2.0,22.2596,11111222 
TABS,ioos:station:wmo:42051:1,2015-04-05T01:00:00Z,29.6350,-93.6417,2.0,22.6684,11111222 
TABS,ioos:station:wmo:42051:1,2015-04-05T01:30:00Z,29.6350,-93.6417,2.0,22.7679,11111222 
TABS,ioos:station:wmo:42051:1,2015-04-05T02:00:00Z,29.6350,-93.6417,2.0,23.0274,11111222 
TABS,ioos:station:wmo:42051:1,2015-04-05T02:30:00Z,29.6350,-93.6417,2.0,23.2735,11111222 
TABS,ioos:station:wmo:42051:1,2015-04-05T03:00:00Z,29.6350,-93.6417,2.0,23.2153,11111222 
TABS,ioos:station:wmo:42051:1,2015-04-05T03:30:00Z,29.6350,-93.6417,2.0,23.2243,11111222 
TABS,ioos:station:wmo:42051:1,2015-04-05T04:00:00Z,29.6350,-93.6417,2.0,23.391,11111222 
TABS,ioos:station:wmo:42051:1,2015-04-05T04:30:00Z,29.6350,-93.6417,2.0,23.4996,11111222 
TABS,ioos:station:wmo:42051:1,2015-04-05T05:00:00Z,29.6350,-93.6417,2.0,23.6474,11111222 
TABS,ioos:station:wmo:42051:1,2015-04-05T05:30:00Z,29.6350,-93.6417,2.0,24.2451,11111222 
TABS,ioos:station:wmo:42051:1,2015-04-05T06:00:00Z,29.6350,-93.6417,2.0,24.5327,11111222 
TABS,ioos:station:wmo:42051:1,2015-04-05T06:30:00Z,29.6350,-93.6417,2.0,25.0464,11111222 
TABS,ioos:station:wmo:42051:1,2015-04-05T07:00:00Z,29.6350,-93.6417,2.0,24.6876,11111222 
TABS,ioos:station:wmo:42051:1,2015-04-05T07:30:00Z,29.6350,-93.6417,2.0,24.9851,11111222 
TABS,ioos:station:wmo:42051:1,2015-04-05T08:00:00Z,29.6350,-93.6417,2.0,25.3655,11111222 
TABS,ioos:station:wmo:42051:1,2015-04-05T08:30:00Z,29.6350,-93.6417,2.0,25.3772,11111222 
TABS,ioos:station:wmo:42051:1,2015-04-05T09:00:00Z,29.6350,-93.6417,2.0,25.9246,11111222 
TABS,ioos:station:wmo:42051:1,2015-04-05T09:30:00Z,29.6350,-93.6417,2.0,26.0015,11111222 
TABS,ioos:station:wmo:42051:1,2015-04-05T10:00:00Z,29.6350,-93.6417,2.0,26.1021,11111222 
TABS,ioos:station:wmo:42051:1,2015-04-05T10:30:00Z,29.6350,-93.6417,2.0,26.3346,11111222 
TABS,ioos:station:wmo:42051:1,2015-04-05T11:00:00Z,29.6350,-93.6417,2.0,25.7508,11111222 
TABS,ioos:station:wmo:42051:1,2015-04-05T11:30:00Z,29.6350,-93.6417,2.0,25.9197,11111222 
TABS,ioos:station:wmo:42051:1,2015-04-05T12:00:00Z,29.6350,-93.6417,2.0,26.3042,11111222 
TABS,ioos:station:wmo:42051:1,2015-04-05T12:30:00Z,29.6350,-93.6417,2.0,26.41,11111222 
TABS,ioos:station:wmo:42051:1,2015-04-05T13:00:00Z,29.6350,-93.6417,2.0,26.5105,11111222 
TABS,ioos:station:wmo:42051:1,2015-04-05T13:30:00Z,29.6350,-93.6417,2.0,26.5543,11111222 
TABS,ioos:station:wmo:42051:1,2015-04-05T14:00:00Z,29.6350,-93.6417,2.0,26.2648,11111222 
TABS,ioos:station:wmo:42051:1,2015-04-05T14:30:00Z,29.6350,-93.6417,2.0,26.6789,11111222 
TABS,ioos:station:wmo:42051:1,2015-04-05T15:00:00Z,29.6350,-93.6417,2.0,26.4589,11111222 
TABS,ioos:station:wmo:42051:1,2015-04-05T15:30:00Z,29.6350,-93.6417,2.0,26.6218,11111222 
TABS,ioos:station:wmo:42051:1,2015-04-05T16:00:00Z,29.6350,-93.6417,2.0,26.549,11111222 
TABS,ioos:station:wmo:42051:1,2015-04-05T16:30:00Z,29.6350,-93.6417,2.0,26.4789,11111222 
TABS,ioos:station:wmo:42051:1,2015-04-05T17:00:00Z,29.6350,-93.6417,2.0,26.6202,11111222 
TABS,ioos:station:wmo:42051:1,2015-04-05T17:30:00Z,29.6350,-93.6417,2.0,26.7304,11111222 
TABS,ioos:station:wmo:42051:1,2015-04-05T18:00:00Z,29.6350,-93.6417,2.0,26.8175,11111222 
TABS,ioos:station:wmo:42051:1,2015-04-05T18:30:00Z,29.6350,-93.6417,2.0,27.0513,11111222 
TABS,ioos:station:wmo:42051:1,2015-04-05T19:00:00Z,29.6350,-93.6417,2.0,27.27,11111222 
TABS,ioos:station:wmo:42051:1,2015-04-05T19:30:00Z,29.6350,-93.6417,2.0,27.2938,11111222 
TABS,ioos:station:wmo:42051:1,2015-04-05T20:00:00Z,29.6350,-93.6417,2.0,27.221,11111222 
TABS,ioos:station:wmo:42051:1,2015-04-05T20:30:00Z,29.6350,-93.6417,2.0,27.0774,11111222 
TABS,ioos:station:wmo:42051:1,2015-04-05T21:00:00Z,29.6350,-93.6417,2.0,27.0622,11111222 
TABS,ioos:station:wmo:42051:1,2015-04-05T21:30:00Z,29.6350,-93.6417,2.0,27.0275,11111222 
TABS,ioos:station:wmo:42051:1,2015-04-05T22:00:00Z,29.6350,-93.6417,2.0,27.0796,11111222 
TABS,ioos:station:wmo:42051:1,2015-04-05T22:30:00Z,29.6350,-93.6417,2.0,26.8563,11111222 
TABS,ioos:station:wmo:42051:1,2015-04-05T23:00:00Z,29.6350,-93.6417,2.0,26.7529,11111222 
TABS,ioos:station:wmo:42051:1,2015-04-05T23:30:00Z,29.6350,-93.6417,2.0,26.3401,11111222 
TABS,ioos:station:wmo:42051:1,2015-04-06T00:00:00Z,29.6350,-93.6417,2.0,26.4578,11111222 
TABS,ioos:station:wmo:42051:1,2015-04-06T00:30:00Z,29.6350,-93.6417,2.0,26.423,11111222 
TABS,ioos:station:wmo:42051:1,2015-04-06T01:00:00Z,29.6350,-93.6417,2.0,26.1627,11111222 
TABS,ioos:station:wmo:42051:1,2015-04-06T01:30:00Z,29.6350,-93.6417,2.0,26.0706,11111222 
TABS,ioos:station:wmo:42051:1,2015-04-06T02:00:00Z,29.6350,-93.6417,2.0,25.9351,11111222 
TABS,ioos:station:wmo:42051:1,2015-04-06T02:30:00Z,29.6350,-93.6417,2.0,25.6972,11111222 
TABS,ioos:station:wmo:42051:1,2015-04-06T03:00:00Z,29.6350,-93.6417,2.0,25.8962,11111222 
TABS,ioos:station:wmo:42051:1,2015-04-06T03:30:00Z,29.6350,-93.6417,2.0,26.3665,11111222 
TABS,ioos:station:wmo:42051:1,2015-04-06T04:00:00Z,29.6350,-93.6417,2.0,26.5718,11111222 
TABS,ioos:station:wmo:42051:1,2015-04-06T04:30:00Z,29.6350,-93.6417,2.0,26.3346,11111222 
TABS,ioos:station:wmo:42051:1,2015-04-06T05:00:00Z,29.6350,-93.6417,2.0,26.6447,11111222 
TABS,ioos:station:wmo:42051:1,2015-04-06T05:30:00Z,29.6350,-93.6417,2.0,26.2441,11111222 
TABS,ioos:station:wmo:42051:1,2015-04-06T06:00:00Z,29.6350,-93.6417,2.0,26.873,11111222 
TABS,ioos:station:wmo:42051:1,2015-04-06T06:30:00Z,29.6350,-93.6417,2.0,26.9285,11111222 
TABS,ioos:station:wmo:42051:1,2015-04-06T07:00:00Z,29.6350,-93.6417,2.0,27.0661,11111222 
TABS,ioos:station:wmo:42051:1,2015-04-06T07:30:00Z,29.6350,-93.6417,2.0,27.0222,11111222 
TABS,ioos:station:wmo:42051:1,2015-04-06T08:00:00Z,29.6350,-93.6417,2.0,27.0827,11111222 
TABS,ioos:station:wmo:42051:1,2015-04-06T08:30:00Z,29.6350,-93.6417,2.0,27.2339,11111222 
TABS,ioos:station:wmo:42051:1,2015-04-06T09:00:00Z,29.6350,-93.6417,2.0,27.2733,11111222 
TABS,ioos:station:wmo:42051:1,2015-04-06T09:30:00Z,29.6350,-93.6417,2.0,27.274,11111222 
TABS,ioos:station:wmo:42051:1,2015-04-06T10:00:00Z,29.6350,-93.6417,2.0,27.2352,11111222 
TABS,ioos:station:wmo:42051:1,2015-04-06T10:30:00Z,29.6350,-93.6417,2.0,27.3087,11111222 
TABS,ioos:station:wmo:42051:1,2015-04-06T11:00:00Z,29.6350,-93.6417,2.0,27.1007,11111222 
TABS,ioos:station:wmo:42051:1,2015-04-06T11:30:00Z,29.6350,-93.6417,2.0,27.113,11111222 
TABS,ioos:station:wmo:42051:1,2015-04-06T12:00:00Z,29.6350,-93.6417,2.0,27.086,11111222 
TABS,ioos:station:wmo:42051:1,2015-04-06T12:30:00Z,29.6350,-93.6417,2.0,27.0042,11111222 
TABS,ioos:station:wmo:42051:1,2015-04-06T13:00:00Z,29.6350,-93.6417,2.0,26.8226,11111222 
TABS,ioos:station:wmo:42051:1,2015-04-06T13:30:00Z,29.6350,-93.6417,2.0,26.8182,11111222 
TABS,ioos:station:wmo:42051:1,2015-04-06T14:00:00Z,29.6350,-93.6417,2.0,26.7059,11111222 
TABS,ioos:station:wmo:42051:1,2015-04-06T14:30:00Z,29.6350,-93.6417,2.0,26.8067,11111222 